Tracking 23726 objects as of 22-Sep-2021
HD Live streaming from Space Station
objects crossing your sky now

STARLINK-1805

Track STARLINK-1805 now!
10-day predictions
STARLINK-1805 is classified as:


NORAD ID: 46705
Int'l Code: 2020-073AM
Perigee: 553.6 km
Apogee: 555.1 km
Inclination: 53.1 °
Period: 95.6 minutes
Semi major axis: 6925 km
RCS: Unknown
Launch date: October 18, 2020
Source: United States (US)
Launch site: AIR FORCE EASTERN TEST RANGE (AFETR)
aabbcc
Your satellite tracking list
Your tracking list is empty




NASA's NSSDC Master Catalog

Two Line Element Set (TLE):
1 46705U 20073AM  21265.38432890  .00001362  00000-0  11030-3 0  9997
2 46705  53.0557  10.8506 0001045 111.1837 248.9264 15.06393434 51347
Source of the keplerian elements: AFSPC